Weather History for KCRE - December, 2012

Change the Weather History Date:

Thursday, December 27, 2012

  Actual Average Record
Temperature  
Mean Temperature 45 °F 47 °F  
Max Temperature 54 °F 56 °F 75 °F (1949)
Min Temperature 36 °F 37 °F 24 °F (2004)
Degree Days  
Heating Degree Days 20 18  
Month to date heating degree days 274 432  
Since 1 July heating degree days 772 793  
Cooling Degree Days 0 0  
Month to date cooling degree days 0 0  
Year to date cooling degree days 2096 1899  
Moisture  
Dew Point 33 °F    
Average Humidity 69    
Maximum Humidity 92    
Minimum Humidity 46    
Precipitation  
Precipitation 0.00 in 0.09 in - ()
Month to date precipitation 2.77 3.11  
Year to date precipitation 38.33 51.66  
Sea Level Pressure  
Sea Level Pressure 29.94 in    
Wind  
Wind Speed 6 mph (WNW)    
Max Wind Speed 16 mph    
Max Gust Speed 26 mph    
Visibility 10 miles    
Events      
T = Trace of Precipitation, MM = Missing Value Source: NWS Daily Summary

Daily Weather History Graph

Daily Weather History Graph

Search for Another Location

Airport or City:

Trip Planner

Search our weather history database for the weather conditions in past years. The results will help you decide how hot, cold, wet, or windy it might be!

Date:

Astronomy

Dec. 27, 2012 Rise Set
Actual Time 7:18 AM EST 5:13 PM EST
Civil Twilight 6:50 AM EST 5:41 PM EST
Nautical Twilight 6:19 AM EST 6:12 PM EST
Astronomical Twilight 5:49 AM EST 6:43 PM EST
Moon 4:54 PM EST (12/27) 6:29 AM EST (12/27)
Length of Visible Light 10h 50m
Length of Day
9h 55m
Full, 100% of the Moon is Illuminated
Dec 27
Full
Dec 28
Full
Jan 4
Last Quarter
Jan 11
New
Jan 18
First Quarter

Hourly Weather History & Observations

Time (EST) Temp. Windchill Dew Point Humidity Pressure Visibility Wind Dir Wind Speed Gust Speed Precip Events Conditions
12:53 AM 43.0 °F 36.8 °F 30.9 °F 62% 29.75 in 10.0 mi West 11.5 mph 23.0 mph N/A   Clear
1:53 AM 42.1 °F 36.1 °F 30.9 °F 65% 29.78 in 10.0 mi West 10.4 mph 17.3 mph N/A   Clear
2:53 AM 41.0 °F 36.4 °F 30.9 °F 67% 29.80 in 10.0 mi West 6.9 mph - N/A   Clear
3:53 AM 39.9 °F 33.9 °F 30.9 °F 70% 29.81 in 10.0 mi West 9.2 mph - N/A   Clear
4:53 AM 39.0 °F 33.4 °F 30.9 °F 73% 29.83 in 10.0 mi West 8.1 mph - N/A   Clear
5:53 AM 37.9 °F 33.5 °F 30.9 °F 76% 29.86 in 10.0 mi West 5.8 mph - N/A   Clear
6:53 AM 37.0 °F 30.4 °F 30.9 °F 79% 29.89 in 10.0 mi West 9.2 mph - N/A   Clear
8:53 AM 39.9 °F 34.5 °F 30.9 °F 70% 29.94 in 10.0 mi WNW 8.1 mph 17.3 mph N/A   Clear
9:53 AM 44.1 °F 38.1 °F 32.0 °F 63% 29.96 in 10.0 mi WNW 11.5 mph 16.1 mph N/A   Clear
10:53 AM 46.9 °F - 32.0 °F 56% 29.96 in 10.0 mi WNW 8.1 mph - N/A   Clear
11:53 AM 50.0 °F - 32.0 °F 50% 29.94 in 10.0 mi North 9.2 mph - N/A   Clear
12:53 PM 52.0 °F - 32.0 °F 47% 29.95 in 10.0 mi NW 8.1 mph - N/A   Clear
1:53 PM 53.1 °F - 33.1 °F 47% 29.95 in 10.0 mi WNW 10.4 mph 16.1 mph N/A   Clear
2:53 PM 54.0 °F - 33.1 °F 45% 29.96 in 10.0 mi WNW 6.9 mph - N/A   Clear
3:53 PM 53.1 °F - 34.0 °F 48% 29.96 in 10.0 mi Variable 3.5 mph - N/A   Clear
4:53 PM 51.1 °F - 36.0 °F 56% 29.97 in 10.0 mi Calm Calm - N/A   Clear
5:53 PM 46.0 °F - 37.0 °F 71% 30.00 in 10.0 mi Calm Calm - N/A   Clear
7:53 PM 41.0 °F 39.0 °F 37.9 °F 89% 30.04 in 10.0 mi West 3.5 mph - N/A   Clear
8:53 PM 41.0 °F - 37.0 °F 86% 30.05 in 10.0 mi Calm Calm - N/A   Clear
9:53 PM 37.0 °F - 36.0 °F 96% 30.06 in 10.0 mi Calm Calm - N/A   Clear
10:53 PM 39.0 °F - 36.0 °F 89% 30.06 in 10.0 mi Calm Calm - N/A   Clear
11:53 PM 37.0 °F - 35.1 °F 93% 30.06 in 9.0 mi Calm Calm - N/A   Clear